{"data":{"norad_id":67789,"intl_designator":"2026-030AB","name":"KUIPER-00266","alt_names":[],"object_type":"PAYLOAD","status":"ACTIVE","operator":null,"country":"US","launch_date":"2026-02-12","launch_site_code":"FRGUI","launch_vehicle":null,"mission":null,"orbit_class":"UNKNOWN","rcs_meters":null,"size_class":null,"mass_kg":null,"dimensions":null,"purposes":[],"wikipedia_slug":null,"has_3d_model":false,"image_url":null,"decayed_at":null,"tle_current":{"epoch":"2026-05-25T04:00:03.998880Z","epoch_age_seconds":54610,"freshness":"FRESH","line1":"1 67789U 26030AB  26145.16671295  .00029674  00000+0  20532-2 0  9994","line2":"2 67789  51.8920 216.1666 0021566 351.5925  31.8431 15.05267630  5888","mean_motion":15.0526763,"eccentricity":0.0021566,"inclination_deg":51.892,"raan_deg":216.1666,"arg_perigee_deg":351.5925,"mean_anomaly_deg":31.8431,"bstar":0.0020532,"rev_number":588,"period_min":95.664051448446,"perigee_km":535.74158839733,"apogee_km":565.62698036111,"semimajor_km":6928.8212843792,"source":"CELESTRAK","updated_at":"2026-05-25T13:38:07.262765Z"}}}